This is the latest recevied weather packets stored in our database for station/object KC9Q. If no packets are shown the sender has not sent any weather packets the latest 10 day(s).
| Time | Temp. | Humidity | Pressure | Rain* | Wind** | Luminosity | Snow |
|---|---|---|---|---|---|---|---|
| 1777936975 | 25.56° C | 38% | 1006.5 hPa | 0 mm | - | 40 W/m² | - |
| 1777936672 | 25.56° C | 37% | 1006.7 hPa | 0 mm | - | 43 W/m² | - |
| 1777936368 | 25.56° C | 36% | 1006.9 hPa | 0 mm | - | 44 W/m² | - |
| 1777936064 | 25.56° C | 36% | 1006.7 hPa | 0 mm | - | 47 W/m² | - |
| 1777935763 | 26.11° C | 36% | 1007 hPa | 0 mm | - | 49 W/m² | - |
| 1777935461 | 26.11° C | 37% | 1007 hPa | 0 mm | - | 54 W/m² | - |
| 1777935157 | 26.11° C | 37% | 1006.9 hPa | 0 mm | - | 54 W/m² | - |
| 1777934854 | 26.11° C | 36% | 1006.8 hPa | 0 mm | - | 69 W/m² | - |
| 1777934552 | 26.11° C | 35% | 1006.9 hPa | 0 mm | - | 59 W/m² | - |
| 1777934248 | 26.11° C | 36% | 1006.9 hPa | 0 mm | - | 59 W/m² | - |
| 1777933943 | 26.11° C | 36% | 1007 hPa | 0 mm | - | 72 W/m² | - |
| 1777933641 | 26.67° C | 36% | 1007 hPa | 0 mm | - | 70 W/m² | - |
| 1777933338 | 26.67° C | 36% | 1006.9 hPa | 0 mm | - | 65 W/m² | - |
| 1777933035 | 26.67° C | 36% | 1007.1 hPa | 0 mm | - | 67 W/m² | - |
| 1777932732 | 26.67° C | 36% | 1007.2 hPa | 0 mm | - | 69 W/m² | - |
| 1777932428 | 26.67° C | 36% | 1007.1 hPa | 0 mm | - | 75 W/m² | - |
| 1777932126 | 26.67° C | 36% | 1007.1 hPa | 0 mm | - | 86 W/m² | - |
| 1777931822 | 26.67° C | 35% | 1007.1 hPa | 0 mm | - | 79 W/m² | - |
| 1777931520 | 26.67° C | 35% | 1007.2 hPa | 0 mm | - | 79 W/m² | - |
| 1777931215 | 26.67° C | 35% | 1007.1 hPa | 0 mm | - | 239 W/m² | - |
| 1777930912 | 27.22° C | 35% | 1007.1 hPa | 0 mm | - | 423 W/m² | - |
| 1777930608 | 26.67° C | 34% | 1007.2 hPa | 0 mm | - | 456 W/m² | - |
| 1777930305 | 27.22° C | 34% | 1007.2 hPa | 0 mm | - | 434 W/m² | - |
| 1777930002 | 27.22° C | 33% | 1007.2 hPa | 0 mm | - | 475 W/m² | - |
| 1777929698 | 27.22° C | 33% | 1007.1 hPa | 0 mm | - | 516 W/m² | - |
* Rain latest hour (hover to see other rain measurements)
** Current wind speed in m/s (hover to see current wind gust speed)